Flag Weather past 2 weeks in Taichung, Taiwan

Now
70 °F

Partly sunny.


Feels Like: 70 °F
Forecast: 70 / 87 °F
Wind: 16 mph from Northeast

Location: Chiang Kai Shek

Current Time: Nov 26, 2014 at 7:37:25 AM

Latest Report: Nov 26, 2014 at 7:00 AM


Visibility: N/A

Pressure: 29.98 "Hg

Humidity: 83%

Dew point: 64 °F

Location of TaichungLocation

Historic Weather in Taichung — Graph

°F

Taichung temperature yesterday

Maximum temperature yesterday: 77 °F (at 10:30 AM)
Minimum temperature yesterday: 64 °F (at 3:56 AM)
Average temperature yesterday: 71 °F

Past Weeks' High & Low Weather Summary

 TemperatureHumidityPressure
High84 °F (Nov 23, 12:30 PM)94% (Nov 12, 1:49 PM)30.24 "Hg (Nov 12, 1:49 PM)
Low63 °F (Nov 13, 7:30 AM)48% (Nov 23, 1:30 PM)29.89 "Hg (Nov 25, 1:30 PM)
Average70 °F75%30.07 "Hg
* Reported Nov 11 6:00 AM — Nov 26 6:30 AM, Taichung, Weather by CustomWeather, © 2014

Note: Actual official high and low records may vary slightly from our data, if they occured in-between our weather recording intervals... More about our weather records

Advertising

Taichung weather history for previous 24 hours

 ConditionsComfort  
Time TempWeatherWind HumidityBarometerVisibility
6:30 AM
Nov 26
70 °FPartly sunny.14 mph88%29.98 "HgN/A
6:00 AM70 °FPassing clouds.12 mph88%29.95 "HgN/A
5:30 AM70 °FPassing clouds.13 mph88%29.95 "Hg6 mi
5:00 AM70 °FPassing clouds.8 mph83%29.95 "Hg4 mi
4:56 AM70 °FPassing clouds.8 mph83%29.95 "Hg4 mi
4:30 AM70 °FPassing clouds.12 mph83%29.92 "Hg6 mi
4:00 AM70 °FPassing clouds.10 mph83%29.92 "Hg6 mi
3:30 AM70 °FPassing clouds.10 mph88%29.92 "Hg4 mi
3:00 AM70 °FPassing clouds.10 mph88%29.92 "Hg4 mi
2:30 AM70 °FPassing clouds.10 mph88%29.92 "Hg4 mi
2:00 AM70 °FPartly cloudy.10 mph88%29.92 "Hg4 mi
1:30 AM70 °FPartly cloudy.13 mph88%29.92 "Hg4 mi
1:00 AM72 °FPassing clouds.15 mph83%29.95 "Hg4 mi
12:30 AM72 °FPassing clouds.12 mph83%29.95 "Hg4 mi
12:00 AM72 °FPassing clouds.13 mph83%29.95 "Hg4 mi
11:30 PM
Nov 25
70 °FFog.13 mph88%29.95 "Hg3 mi
11:00 PM70 °FFog.13 mph88%29.95 "Hg3 mi
10:30 PM72 °FFog.15 mph88%29.95 "Hg3 mi
10:00 PM72 °FFog.12 mph88%29.95 "Hg3 mi
9:30 PM70 °FFog.9 mph88%29.95 "Hg2 mi
9:00 PM68 °FFog.7 mph94%29.92 "Hg3 mi
8:30 PM68 °FFog.7 mph94%29.92 "Hg3 mi
8:00 PM70 °FFog.7 mph88%29.92 "Hg2 mi
7:30 PM70 °FFog.6 mph88%29.92 "Hg2 mi
7:00 PM70 °FFog.6 mph88%29.89 "Hg3 mi
6:30 PM72 °FPassing clouds.10 mph88%29.89 "Hg4 mi
6:00 PM72 °FPassing clouds.10 mph83%29.89 "Hg4 mi
5:30 PM72 °FPassing clouds.9 mph83%29.89 "Hg5 mi
5:00 PM72 °FPassing clouds.10 mph83%29.89 "Hg5 mi
4:30 PM72 °FScattered clouds.13 mph88%29.89 "Hg6 mi
4:00 PM73 °FPartly sunny.13 mph83%29.89 "HgN/A
3:47 PM73 °FPartly sunny.12 mph83%29.89 "HgN/A
3:30 PM73 °FScattered clouds.12 mph83%29.89 "HgN/A
3:00 PM75 °FScattered clouds.10 mph78%29.89 "HgN/A
2:30 PM75 °FPassing clouds.10 mph74%29.89 "HgN/A
2:00 PM77 °FPassing clouds.10 mph65%29.89 "HgN/A
1:30 PM77 °FPassing clouds.10 mph65%29.89 "HgN/A
1:00 PM77 °FPassing clouds.9 mph69%29.92 "HgN/A
12:30 PM77 °FScattered clouds.10 mph69%29.92 "Hg6 mi
11:30 AM77 °FBroken clouds.9 mph69%29.95 "Hg4 mi
10:30 AM77 °FFog.7 mph65%29.98 "Hg3 mi
10:00 AM73 °FFog.3 mph78%29.98 "Hg2 mi
9:30 AM73 °FFog.2 mph83%29.98 "Hg1 mi
9:00 AM72 °FFog.2 mph88%29.98 "Hg1 mi
8:30 AM72 °FFog.3 mph88%29.98 "Hg1 mi
7:30 AM70 °FFog.2 mph88%29.98 "Hg1 mi
7:00 AM68 °FFog.5 mph94%29.98 "Hg1 mi
Weather by CustomWeather, © 2014

See weather overviewHow to use our weather pages